When you browse on this site, cookies collect data to enhance your experience and personalize the content and advertising you see.
Visit our Privacy Policy to learn more. By continuing to use the site, you agree to this use of cookies and data.
  • In Germany
  • List of Countries
  • For 7 days
  • Water Temperature
  • Weather Map
  • Weather Widgets
  • user-avatar
    Login

    Hourly Weather Gomel

    Today, 31 May, Sunday

    Time Temperature Precipitation Wind Pressure Humidity
    00:00 +12°C° 0 mm 2 mps 741 mmHg 95%
    01:00 +12°C° 0 mm 2 mps 741 mmHg 96%
    02:00 +10°C° 0 mm 2 mps 742 mmHg 96%
    03:00 +12°C° 0 mm 2 mps 742 mmHg 96%
    04:00 +12°C° 0 mm 2 mps 742 mmHg 96%
    05:00 +12°C° 0 mm 2 mps 742 mmHg 96%
    06:00 +13°C° 0 mm 2 mps 743 mmHg 93%
    07:00 +14°C° 0 mm 2 mps 743 mmHg 90%
    08:00 +15°C° 0 mm 1 mps 743 mmHg 86%
    09:00 +15°C° 0.2 mm 2 mps 744 mmHg 83%
    10:00 +16°C° 0.2 mm 3 mps 744 mmHg 79%
    11:00 +17°C° 0.2 mm 4 mps 744 mmHg 75%
    12:00 +17°C° 0.2 mm 3 mps 744 mmHg 72%
    13:00 +18°C° 0.2 mm 2 mps 745 mmHg 68%
    14:00 +19°C° 0 mm 1 mps 745 mmHg 64%
    15:00 +17°C° 0.5 mm 3 mps 745 mmHg 71%
    16:00 +15°C° 0.5 mm 4 mps 745 mmHg 79%
    17:00 +13°C° 0.5 mm 6 mps 745 mmHg 86%
    18:00 +12°C° 0.2 mm 5 mps 745 mmHg 87%
    19:00 +10°C° 0.2 mm 5 mps 745 mmHg 89%
    20:00 +9°C° 0.2 mm 5 mps 746 mmHg 90%
    21:00 +9°C° 0 mm 5 mps 746 mmHg 91%
    22:00 +8°C° 0 mm 5 mps 746 mmHg 91%
    23:00 +7°C° 0 mm 4 mps 746 mmHg 92%

    Tomorrow, 1 June, Monday

    Time Temperature Precipitation Wind Pressure Humidity
    00:00 +8°C° 0 mm 4 mps 746 mmHg 92%
    01:00 +8°C° 0 mm 5 mps 746 mmHg 93%
    02:00 +8°C° 0 mm 5 mps 746 mmHg 93%
    03:00 +8°C° 0 mm 5 mps 746 mmHg 91%
    04:00 +7°C° 0 mm 6 mps 746 mmHg 90%
    05:00 +7°C° 0 mm 6 mps 746 mmHg 88%
    06:00 +7°C° 0 mm 6 mps 746 mmHg 85%
    07:00 +8°C° 0 mm 7 mps 746 mmHg 82%
    08:00 +8°C° 0 mm 7 mps 746 mmHg 79%
    09:00 +9°C° 0.1 mm 7 mps 746 mmHg 78%
    10:00 +9°C° 0.1 mm 7 mps 746 mmHg 78%
    11:00 +9°C° 0.1 mm 7 mps 746 mmHg 77%
    12:00 +8°C° 0.2 mm 7 mps 746 mmHg 79%
    13:00 +8°C° 0.2 mm 7 mps 746 mmHg 82%
    14:00 +6°C° 0.2 mm 7 mps 745 mmHg 84%
    15:00 +7°C° 0.9 mm 6 mps 745 mmHg 88%
    16:00 +7°C° 0.9 mm 6 mps 745 mmHg 91%
    17:00 +7°C° 0.9 mm 5 mps 744 mmHg 95%
    18:00 +7°C° 1 mm 5 mps 744 mmHg 95%
    19:00 +7°C° 1 mm 6 mps 744 mmHg 95%
    20:00 +7°C° 1 mm 6 mps 743 mmHg 95%
    21:00 +7°C° 0.8 mm 5 mps 742 mmHg 95%
    22:00 +8°C° 0.8 mm 5 mps 742 mmHg 95%
    23:00 +8°C° 0.8 mm 4 mps 741 mmHg 96%

    Day after tomorrow, 2 June, Tuesday

    Time Temperature Precipitation Wind Pressure Humidity
    00:00 +9°C° 0.9 mm 3 mps 740 mmHg 97%
    01:00 +9°C° 0.9 mm 3 mps 740 mmHg 97%
    02:00 +9°C° 0.9 mm 2 mps 740 mmHg 98%
    03:00 +9°C° 1.3 mm 2 mps 739 mmHg 98%
    04:00 +9°C° 1.3 mm 2 mps 739 mmHg 98%
    05:00 +9°C° 1.3 mm 2 mps 738 mmHg 97%
    06:00 +9°C° 0.3 mm 3 mps 739 mmHg 95%
    07:00 +10°C° 0.3 mm 4 mps 739 mmHg 92%
    08:00 +9°C° 0.3 mm 5 mps 740 mmHg 89%
    09:00 +10°C° 0.2 mm 5 mps 740 mmHg 84%
    10:00 +11°C° 0.2 mm 6 mps 740 mmHg 79%
    11:00 +13°C° 0.2 mm 6 mps 741 mmHg 74%
    12:00 +13°C° 0.4 mm 6 mps 741 mmHg 72%
    13:00 +14°C° 0.4 mm 7 mps 741 mmHg 69%
    14:00 +14°C° 0.4 mm 7 mps 741 mmHg 67%
    15:00 +14°C° 0.5 mm 6 mps 741 mmHg 71%
    16:00 +13°C° 0.5 mm 6 mps 741 mmHg 75%
    17:00 +13°C° 0.5 mm 5 mps 741 mmHg 78%
    18:00 +12°C° 0.2 mm 4 mps 742 mmHg 82%
    19:00 +11°C° 0.2 mm 4 mps 742 mmHg 87%
    20:00 +10°C° 0.2 mm 3 mps 742 mmHg 91%
    21:00 +9°C° 0 mm 3 mps 742 mmHg 92%
    22:00 +8°C° 0 mm 3 mps 742 mmHg 93%
    23:00 +7°C° 0 mm 4 mps 742 mmHg 95%

    3 June, Wednesday

    Time Temperature Precipitation Wind Pressure Humidity
    00:00 +7°C° 0 mm 4 mps 742 mmHg 94%
    01:00 +7°C° 0 mm 4 mps 742 mmHg 94%
    02:00 +7°C° 0 mm 4 mps 742 mmHg 94%
    03:00 +7°C° 0.1 mm 4 mps 742 mmHg 93%
    04:00 +7°C° 0.1 mm 4 mps 742 mmHg 92%
    05:00 +7°C° 0.1 mm 5 mps 742 mmHg 92%
    06:00 +8°C° 0 mm 5 mps 742 mmHg 88%
    07:00 +9°C° 0 mm 6 mps 742 mmHg 85%
    08:00 +10°C° 0 mm 6 mps 742 mmHg 81%
    09:00 +11°C° 0.3 mm 6 mps 742 mmHg 78%
    10:00 +13°C° 0.3 mm 6 mps 742 mmHg 75%
    11:00 +14°C° 0.3 mm 6 mps 742 mmHg 72%
    12:00 +15°C° 0.4 mm 6 mps 742 mmHg 70%
    13:00 +15°C° 0.4 mm 6 mps 742 mmHg 68%
    14:00 +16°C° 0.4 mm 6 mps 742 mmHg 67%
    15:00 +16°C° 0.2 mm 5 mps 742 mmHg 68%
    16:00 +16°C° 0.2 mm 5 mps 742 mmHg 69%
    17:00 +17°C° 0.2 mm 4 mps 742 mmHg 69%
    18:00 +14°C° 0.1 mm 4 mps 742 mmHg 75%
    19:00 +13°C° 0.1 mm 3 mps 742 mmHg 82%
    20:00 +12°C° 0.1 mm 2 mps 742 mmHg 88%
    21:00 +12°C° 0 mm 2 mps 742 mmHg 89%
    22:00 +10°C° 0 mm 2 mps 743 mmHg 91%
    23:00 +9°C° 0 mm 2 mps 743 mmHg 92%

    4 June, Thursday

    Time Temperature Precipitation Wind Pressure Humidity
    00:00 +9°C° 0 mm 2 mps 743 mmHg 92%
    01:00 +8°C° 0 mm 2 mps 743 mmHg 93%
    02:00 +8°C° 0 mm 2 mps 743 mmHg 93%
    03:00 +8°C° 0 mm 2 mps 743 mmHg 93%
    04:00 +8°C° 0 mm 2 mps 743 mmHg 94%
    05:00 +8°C° 0 mm 2 mps 743 mmHg 94%
    06:00 +10°C° 0 mm 3 mps 743 mmHg 89%
    07:00 +12°C° 0 mm 3 mps 743 mmHg 84%
    08:00 +14°C° 0 mm 3 mps 743 mmHg 78%
    09:00 +15°C° 0.2 mm 4 mps 743 mmHg 74%
    10:00 +16°C° 0.2 mm 5 mps 743 mmHg 70%
    11:00 +17°C° 0.2 mm 5 mps 743 mmHg 66%
    12:00 +17°C° 0.4 mm 5 mps 743 mmHg 66%
    13:00 +17°C° 0.4 mm 5 mps 742 mmHg 66%
    14:00 +17°C° 0.4 mm 6 mps 742 mmHg 66%
    15:00 +17°C° 0.3 mm 5 mps 742 mmHg 67%
    16:00 +17°C° 0.3 mm 5 mps 742 mmHg 69%
    17:00 +18°C° 0.3 mm 4 mps 742 mmHg 71%
    18:00 +17°C° 0.3 mm 4 mps 742 mmHg 76%
    19:00 +14°C° 0.3 mm 4 mps 742 mmHg 81%
    20:00 +13°C° 0.3 mm 3 mps 742 mmHg 86%
    21:00 +12°C° 0.1 mm 3 mps 742 mmHg 88%
    22:00 +12°C° 0.1 mm 3 mps 742 mmHg 90%
    23:00 +11°C° 0.1 mm 3 mps 743 mmHg 92%

    5 June, Friday

    Time Temperature Precipitation Wind Pressure Humidity
    00:00 +11°C° 0.2 mm 3 mps 743 mmHg 93%
    01:00 +10°C° 0.2 mm 3 mps 742 mmHg 94%
    02:00 +10°C° 0.2 mm 3 mps 742 mmHg 95%
    03:00 +10°C° 0.1 mm 4 mps 742 mmHg 95%
    04:00 +11°C° 0.1 mm 4 mps 742 mmHg 95%
    05:00 +11°C° 0.1 mm 4 mps 742 mmHg 95%
    06:00 +12°C° 0.4 mm 4 mps 742 mmHg 94%
    07:00 +13°C° 0.4 mm 5 mps 742 mmHg 93%
    08:00 +14°C° 0.4 mm 5 mps 742 mmHg 92%
    09:00 +15°C° 0 mm 5 mps 742 mmHg 88%
    10:00 +16°C° 0 mm 6 mps 742 mmHg 84%
    11:00 +17°C° 0 mm 6 mps 742 mmHg 80%
    12:00 +17°C° 0.8 mm 7 mps 741 mmHg 85%
    13:00 +16°C° 0.8 mm 7 mps 741 mmHg 89%
    14:00 +15°C° 0.8 mm 7 mps 741 mmHg 94%
    15:00 +15°C° 0.5 mm 7 mps 741 mmHg 94%
    16:00 +15°C° 0.5 mm 6 mps 741 mmHg 95%
    17:00 +15°C° 0.5 mm 6 mps 741 mmHg 95%
    18:00 +15°C° 0 mm 5 mps 741 mmHg 95%
    19:00 +15°C° 0 mm 4 mps 742 mmHg 95%
    20:00 +14°C° 0 mm 4 mps 742 mmHg 95%
    21:00 +14°C° 0 mm 4 mps 743 mmHg 95%
    22:00 +14°C° 0 mm 4 mps 744 mmHg 95%
    23:00 +13°C° 0 mm 3 mps 744 mmHg 94%
    Show more